FW7772 Weather Reports


Display with metric or nautical units.
time (UTC)temp
F
wind
direction
speed
MPH
gust
MPH
rain 1hr
in
rain 24hr
in
rain mn
in
humidity
%
barometer
mb
20260504004029 28 322 3.0 4.0 0.00 0.02 0.00 89 1006.1
20260504003030 28 320 2.0 3.0 0.00 0.02 0.00 88 1006.3
20260504002030 29 327 1.0 3.0 0.00 0.02 0.00 88 1006.4
20260504001029 29 327 1.0 2.0 0.00 0.02 0.00 88 1006.5
20260504000029 29 327 1.0 3.0 0.00 0.02 0.00 89 1006.5
20260503235030 29 327 1.0 2.0 0.00 0.02 0.00 89 1006.5
20260503234029 29 327 3.0 5.0 0.00 0.02 0.00 88 1006.6
20260503233030 29 333 3.0 5.0 0.00 0.02 0.00 88 1006.7
20260503232028 29 322 3.0 5.0 0.00 0.02 0.00 88 1006.8
20260503231514 29 310 3.0 3.0 0.00 0.02 0.00 87 1007.0
20260503230029 29 319 2.0 4.0 0.00 0.02 0.00 87 1006.8
20260503225028 29 287 2.0 3.0 0.00 0.02 0.00 86 1007.1
20260503224029 29 287 2.0 3.0 0.00 0.02 0.00 86 1007.1
20260503223028 30 287 2.0 3.0 0.00 0.02 0.00 86 1007.3
20260503222025 30 287 2.0 3.0 0.00 0.02 0.00 85 1007.4
20260503221024 31 287 2.0 3.0 0.00 0.02 0.00 84 1007.4
20260503220023 31 287 2.0 3.0 0.00 0.02 0.00 84 1007.3
20260503215023 31 287 0.0 3.0 0.00 0.02 0.02 83 1007.5
20260503214023 32 287 1.0 3.0 0.00 0.02 0.02 82 1007.5
20260503213023 32 287 0.0 2.0 0.00 0.02 0.02 82 1007.5
20260503212019 33 287 0.0 0.0 0.00 0.02 0.02 82 1007.6
20260503211019 33 287 0.0 0.0 0.00 0.02 0.02 81 1007.6
20260503210018 34 287 0.0 0.0 0.00 0.02 0.02 80 1007.7
20260503205019 35 287 0.0 0.0 0.00 0.02 0.02 80 1007.8
20260503204019 35 287 0.0 0.0 0.00 0.02 0.02 80 1007.9
20260503203018 36 287 0.0 2.0 0.00 0.02 0.02 79 1007.9
20260503202019 37 287 1.0 3.0 0.00 0.02 0.02 78 1008.1
20260503201947 38 287 1.0 3.0 0.00 0.02 0.02 77 1008.2
20260503200018 39 287 1.0 2.0 0.00 0.02 0.02 76 1008.2
20260503195451 40 287 2.0 3.0 0.00 0.02 0.02 74 1008.2
20260503194019 41 287 2.0 3.0 0.00 0.02 0.02 73 1008.1
20260503193018 42 207 1.0 2.0 0.00 0.02 0.02 73 1008.0
20260503192017 43 160 0.0 2.0 0.00 0.02 0.02 71 1008.0
20260503191016 44 145 0.0 1.0 0.00 0.02 0.02 70 1007.8
20260503190017 45 145 1.0 2.0 0.00 0.02 0.02 69 1008.0
20260503185015 46 145 1.0 3.0 0.00 0.02 0.02 67 1008.1
20260503184012 47 156 1.0 4.0 0.00 0.02 0.02 66 1008.2
20260503183012 47 162 2.0 4.0 0.00 0.02 0.02 65 1008.1
20260503182012 47 150 3.0 5.0 0.00 0.02 0.02 65 1008.2
20260503181452 47 147 3.0 6.0 0.00 0.02 0.02 64 1008.3
20260503180454 47 161 4.0 7.0 0.00 0.02 0.02 64 1008.3
20260503175012 48 137 3.0 7.0 0.00 0.02 0.02 63 1008.3
20260503174013 48 169 4.0 8.0 0.00 0.02 0.02 63 1008.3
20260503173449 48 114 6.0 11.0 0.00 0.02 0.02 62 1008.3
20260503172929 48 139 5.0 9.0 0.00 0.02 0.02 60 1008.4
20260503171007 48 123 6.0 11.0 0.00 0.02 0.02 60 1008.5
20260503151004 52 118 7.0 14.0 0.00 0.02 0.02 54 1009.3
20260503150439 52 129 7.0 14.0 0.00 0.02 0.02 53 1009.2
20260503131002 51 116 4.0 9.0 0.00 0.02 0.02 54 1010.3
20260503130445 49 127 5.0 11.0 0.00 0.02 0.02 54 1010.4
20260503081445 39 188 2.0 4.0 0.00 0.02 0.02 78 1013.1
20260503071951 38 149 2.0 4.0 0.00 0.02 0.02 82 1013.0
20260503070952 37 147 3.0 5.0 0.00 0.02 0.02 82 1013.1
20260503054945 37 136 2.0 5.0 0.00 0.02 0.02 87 1012.9
20260503053945 37 121 3.0 5.0 0.01 0.02 0.02 87 1012.8
20260503052945 37 133 3.0 5.0 0.01 0.02 0.02 87 1012.7
20260503052426 37 139 1.0 4.0 0.01 0.02 0.02 88 1012.7
20260503050944 37 135 3.0 5.0 0.01 0.02 0.02 86 1012.8
20260503050429 38 125 1.0 6.0 0.02 0.02 0.02 85 1012.8
20260503045428 38 81 1.0 3.0 0.02 0.02 0.02 84 1012.8
20260503043943 38 74 2.0 4.0 0.01 0.01 0.01 83 1012.8
20260503042943 38 54 2.0 6.0 0.01 0.01 0.01 82 1012.7
20260503041942 38 49 3.0 7.0 0.01 0.01 0.01 81 1012.7
20260503040943 39 43 2.0 7.0 0.01 0.01 0.01 80 1012.7
20260503035943 39 48 2.0 3.0 0.00 0.00 0.00 80 1012.7
20260503034943 39 50 2.0 6.0 0.00 0.00 0.00 79 1012.6
20260503034432 40 64 2.0 5.0 0.00 0.00 0.00 78 1012.6
20260503032937 40 60 4.0 7.0 0.00 0.00 0.00 76 1012.4
20260503031938 40 83 3.0 7.0 0.00 0.00 0.00 75 1012.3
20260503030936 40 75 2.0 5.0 0.00 0.00 0.00 75 1012.3
20260503025936 40 85 3.0 7.0 0.00 0.00 0.00 75 1012.1
20260503025412 40 71 3.0 7.0 0.00 0.00 0.00 74 1012.0
20260503023937 41 131 3.0 5.0 0.00 0.00 0.00 74 1011.9
20260503022937 41 75 2.0 4.0 0.00 0.00 0.00 74 1011.8
20260503021936 41 342 1.0 4.0 0.00 0.00 0.00 74 1011.8
20260503020937 41 35 2.0 6.0 0.00 0.00 0.00 73 1011.7
20260503020413 41 62 2.0 4.0 0.00 0.00 0.00 73 1011.7
20260503014936 41 33 1.0 3.0 0.00 0.00 0.00 72 1011.6
20260503013931 41 43 2.0 6.0 0.00 0.00 0.00 72 1011.7
20260503012930 42 41 3.0 8.0 0.00 0.00 0.00 71 1011.7
20260503011931 42 70 4.0 10.0 0.00 0.00 0.00 71 1011.7
20260503010930 42 34 3.0 8.0 0.00 0.00 0.00 72 1011.6
20260503005930 42 46 4.0 9.0 0.00 0.00 0.00 72 1011.6
20260503004930 42 56 4.0 11.0 0.00 0.00 0.00 73 1011.5